TimeEEST,TemperatureF,Dew PointF,Humidity,Sea Level PressureIn,VisibilityMPH,Wind Direction,Wind SpeedMPH,Gust SpeedMPH,PrecipitationIn,Events,Conditions,WindDirDegrees,DateUTC
12:50 AM,69.8,48.2,46,29.71,-9999.0,Calm,Calm,-,N/A,,Clear,0,2013-05-30 21:50:00
1:50 AM,71.6,51.8,50,29.68,-9999.0,NW,4.6,-,N/A,,Clear,320,2013-05-30 22:50:00
2:50 AM,69.8,51.8,53,29.68,6.2,NW,8.1,-,N/A,,Partly Cloudy,320,2013-05-30 23:50:00
3:50 AM,69.8,51.8,53,29.68,6.2,NW,4.6,-,N/A,,Partly Cloudy,320,2013-05-31 00:50:00
4:50 AM,68.0,51.8,56,29.68,6.2,NNW,4.6,-,N/A,,Partly Cloudy,330,2013-05-31 01:50:00
5:50 AM,66.2,50.0,56,29.68,6.2,NNW,5.8,-,N/A,,Partly Cloudy,340,2013-05-31 02:50:00
6:20 AM,68.0,50.0,52,29.68,6.2,North,5.8,-,N/A,,Partly Cloudy,350,2013-05-31 03:20:00
6:50 AM,68.0,48.2,49,29.71,-9999.0,North,5.8,-,N/A,,Clear,350,2013-05-31 03:50:00
7:20 AM,69.8,48.2,46,29.71,-9999.0,NW,4.6,-,N/A,,Clear,320,2013-05-31 04:20:00
7:50 AM,71.6,48.2,43,29.71,-9999.0,West,6.9,-,N/A,,Clear,280,2013-05-31 04:50:00
8:20 AM,73.4,46.4,38,29.71,-9999.0,WSW,5.8,-,N/A,,Clear,240,2013-05-31 05:20:00
8:50 AM,75.2,46.4,36,29.71,-9999.0,WNW,9.2,-,N/A,,Clear,290,2013-05-31 05:50:00
9:20 AM,75.2,42.8,31,29.71,-9999.0,WNW,9.2,-,N/A,,Clear,300,2013-05-31 06:20:00
9:50 AM,77.0,42.8,29,29.71,-9999.0,WSW,4.6,-,N/A,,Clear,250,2013-05-31 06:50:00
10:20 AM,78.8,42.8,28,29.71,-9999.0,West,9.2,-,N/A,,Clear,260,2013-05-31 07:20:00
10:50 AM,78.8,42.8,28,29.71,-9999.0,WSW,10.4,-,N/A,,Clear,250,2013-05-31 07:50:00
11:20 AM,80.6,42.8,26,29.71,-9999.0,West,10.4,-,N/A,,Clear,260,2013-05-31 08:20:00
11:50 AM,80.6,42.8,26,29.71,-9999.0,SW,10.4,-,N/A,,Clear,230,2013-05-31 08:50:00
12:20 PM,82.4,42.8,25,29.71,-9999.0,WNW,10.4,-,N/A,,Clear,290,2013-05-31 09:20:00
12:50 PM,82.4,44.6,26,29.71,-9999.0,WSW,8.1,-,N/A,,Clear,240,2013-05-31 09:50:00
1:20 PM,80.6,44.6,28,29.71,-9999.0,SW,10.4,-,N/A,,Clear,220,2013-05-31 10:20:00
1:50 PM,82.4,44.6,26,29.71,-9999.0,West,10.4,-,N/A,,Clear,270,2013-05-31 10:50:00
2:20 PM,82.4,44.6,26,29.71,6.2,WSW,10.4,-,N/A,,Partly Cloudy,240,2013-05-31 11:20:00
2:50 PM,82.4,42.8,25,29.71,6.2,West,15.0,-,N/A,,Partly Cloudy,280,2013-05-31 11:50:00
3:50 PM,82.4,41.0,23,29.71,6.2,West,11.5,-,N/A,,Partly Cloudy,270,2013-05-31 12:50:00
4:20 PM,82.4,39.2,21,29.71,6.2,WNW,11.5,-,N/A,,Partly Cloudy,290,2013-05-31 13:20:00
4:50 PM,82.4,39.2,21,29.71,6.2,West,10.4,-,N/A,,Partly Cloudy,270,2013-05-31 13:50:00
5:20 PM,82.4,39.2,21,29.68,-9999.0,WSW,9.2,-,N/A,,Clear,250,2013-05-31 14:20:00
5:50 PM,82.4,37.4,20,29.68,-9999.0,West,6.9,18.4,N/A,,Clear,270,2013-05-31 14:50:00
6:20 PM,80.6,37.4,21,29.68,-9999.0,West,8.1,-,N/A,,Clear,280,2013-05-31 15:20:00
6:50 PM,78.8,37.4,23,29.68,-9999.0,West,11.5,23.0,N/A,,Clear,280,2013-05-31 15:50:00
7:20 PM,77.0,37.4,24,29.71,-9999.0,WNW,12.7,24.2,N/A,,Clear,290,2013-05-31 16:20:00
7:50 PM,77.0,39.2,26,29.71,-9999.0,West,11.5,-,N/A,,Clear,270,2013-05-31 16:50:00
8:20 PM,73.4,39.2,29,29.74,-9999.0,West,11.5,-,N/A,,Clear,260,2013-05-31 17:20:00
8:50 PM,73.4,39.2,29,29.71,-9999.0,West,8.1,19.6,N/A,,Clear,260,2013-05-31 17:50:00
9:50 PM,71.6,37.4,29,29.77,-9999.0,WNW,16.1,-,N/A,,Clear,290,2013-05-31 18:50:00
10:20 PM,69.8,39.2,33,29.77,-9999.0,WNW,17.3,28.8,N/A,,Clear,300,2013-05-31 19:20:00
10:50 PM,69.8,39.2,33,29.80,-9999.0,WNW,15.0,26.5,N/A,,Clear,290,2013-05-31 19:50:00
11:20 PM,69.8,39.2,33,29.80,-9999.0,West,15.0,26.5,N/A,,Clear,280,2013-05-31 20:20:00
11:50 PM,68.0,39.2,35,29.80,-9999.0,NW,11.5,-,N/A,,Clear,310,2013-05-31 20:50:00